GW0458 Weather Reports


Display with metric or nautical units.
time (UTC)temp
F
wind
direction
speed
MPH
gust
MPH
rain 1hr
in
rain 24hr
in
rain mn
in
humidity
%
barometer
mb
20260906151807 52 205 0.0 0.0 0.00 0.00 0.00 97 1024.0
20260906144804 50 199 0.0 0.0 0.00 0.00 0.00 99 1024.4
20260906141801 47 207 0.0 0.0 0.00 0.00 0.00 99 1024.3
20260906134757 47 191 1.0 1.0 0.00 0.00 0.00 99 1024.0
20260906131753 48 198 0.0 0.0 0.00 0.00 0.00 99 1024.1
20260906124752 49 181 0.0 1.0 0.00 0.00 0.00 99 1024.1
20260906121751 48 198 1.0 1.0 0.00 0.00 0.00 99 1024.3
20260906114746 50 198 0.0 0.0 0.00 0.00 0.00 99 1024.3
20260906111744 49 201 0.0 0.0 0.00 0.00 0.00 99 1024.1
20260906104742 49 207 0.0 0.0 0.00 0.00 0.00 99 1023.8
20260906101741 50 200 0.0 0.0 0.00 0.00 0.00 99 1024.0
20260906094738 50 200 0.0 0.0 0.00 0.00 0.00 99 1024.1
20260906091733 50 212 0.0 0.0 0.00 0.00 0.00 99 1024.0
20260906084730 51 193 0.0 0.0 0.00 0.00 0.00 99 1023.8
20260906081730 52 202 0.0 0.0 0.00 0.00 0.00 99 1024.1
20260906074730 52 203 1.0 1.0 0.00 0.00 0.00 99 1024.0
20260906071729 53 196 0.0 0.0 0.00 0.00 0.00 98 1024.3
20260906064728 53 199 0.0 0.0 0.00 0.00 0.00 98 1024.5
20260906061728 54 199 0.0 0.0 0.00 0.00 0.00 97 1024.5
20260906054726 55 199 0.0 0.0 0.00 0.00 0.00 96 1024.7
20260906051725 56 206 0.0 0.0 0.00 0.00 0.00 95 1024.6
20260906044722 57 199 2.0 2.0 0.00 0.00 0.00 91 1024.8
20260906041721 59 205 0.0 0.0 0.00 0.00 0.00 87 1024.8
20260906034721 60 203 0.0 0.0 0.00 0.00 0.00 85 1024.8
20260906031721 62 204 0.0 0.0 0.00 0.00 0.00 78 1024.3
20260906024716 64 186 0.0 0.0 0.00 0.00 0.00 73 1024.3
20260906021717 66 182 0.0 0.0 0.00 0.00 0.00 68 1023.8
20260906014716 67 206 0.0 0.0 0.00 0.00 0.00 65 1023.7
20260906011716 69 205 0.0 0.0 0.00 0.00 0.00 61 1023.6
20260906004713 69 206 0.0 0.0 0.00 0.00 0.00 60 1023.7
20260906001707 68 212 0.0 0.0 0.00 0.00 0.00 65 1023.6
20260905234705 68 217 0.0 0.0 0.00 0.00 0.00 61 1023.9
20260905231704 71 213 0.0 1.0 0.00 0.00 0.00 56 1023.9
20260905224704 68 202 1.0 1.0 0.00 0.00 0.00 62 1024.6
20260905221700 65 211 0.0 0.0 0.00 0.00 0.00 69 1024.8
20260905214657 64 182 1.0 1.0 0.00 0.00 0.00 72 1025.0
20260905211656 63 207 0.0 0.0 0.00 0.00 0.00 74 1025.2
20260905204652 63 152 0.0 0.0 0.00 0.00 0.00 73 1025.6
20260905201647 62 209 1.0 1.0 0.00 0.00 0.00 75 1025.4
20260905194643 62 184 0.0 1.0 0.00 0.00 0.00 78 1025.7
20260905191642 62 217 1.0 1.0 0.00 0.00 0.00 77 1025.9
20260905184637 64 197 0.0 1.0 0.00 0.00 0.00 74 1026.2
20260905181637 62 168 0.0 0.0 0.00 0.00 0.00 76 1026.2
20260905174634 61 111 0.0 1.0 0.00 0.00 0.00 78 1026.3
20260905171629 60 202 1.0 2.0 0.00 0.00 0.00 78 1026.2
20260905164625 60 133 1.0 2.0 0.00 0.00 0.00 80 1025.9
20260905161623 59 217 0.0 1.0 0.00 0.00 0.00 83 1026.0
20260905154619 59 193 0.0 1.0 0.00 0.00 0.00 85 1026.0